Theta_e
316 316 315 314 314 313 313 313 313 312 312 313 312 312 313 313 314 315 315 318 318 317 314 312 312 316 310 312 316 316 311 311 314 315 316 320 318 322 322 323 325 325 325 343 354
316 316 316 314 313 313 313 313 313 312 311 311 311 311 311 310 311 314 320 320 321 319 316 314 310 315 312 314 314 313 312 313 315 316 316 317 318 320 320 320 323 324 324 344 348
315 315 315 314 313 313 313 313 313 312 311 310 310 310 310 308 309 316 322 322 322 319 319 317 313 313 314 313 314 315 314 314 316 317 318 318 318 320 318 317 320 321 322 323 334
315 314 313 312 310 310 311 311 312 311 310 309 308 309 309 308 313 320 316 318 317 317 319 319 314 313 312 311 314 312 315 316 317 318 318 316 319 319 319 318 319 319 320 320 320
315 313 312 312 312 311 310 309 309 308 308 307 307 308 310 313 311 315 320 317 318 319 317 317 315 313 313 313 314 313 313 315 317 318 318 319 317 317 318 318 318 319 319 319 319
313 313 312 311 311 310 309 309 308 308 308 308 307 308 311 311 310 312 315 315 316 319 317 316 314 315 316 313 312 315 314 314 316 316 318 316 316 318 318 318 318 318 318 318 319
311 311 312 312 312 312 311 309 308 307 307 307 308 311 312 309 309 315 317 317 318 320 319 314 313 315 317 313 316 315 313 313 315 316 315 318 316 316 318 318 318 318 318 318 318
312 313 312 312 310 309 308 306 305 306 305 307 311 311 313 307 312 313 314 317 319 320 318 317 314 314 316 315 315 313 313 314 315 316 317 317 316 316 318 318 318 318 318 318 318
308 309 309 309 309 307 307 303 303 304 307 311 311 312 313 315 318 318 316 318 319 320 318 316 316 315 314 312 314 314 314 314 316 316 316 316 316 316 318 318 319 319 319 319 319
301 301 301 302 302 301 302 301 303 308 313 314 313 315 314 317 319 320 319 317 318 319 320 319 317 315 313 313 316 315 314 314 315 316 317 316 316 316 319 320 321 322 322 321 320
300 300 301 301 300 300 300 301 313 315 315 317 317 316 317 319 320 320 320 318 319 317 320 320 317 317 316 315 316 317 317 316 316 317 317 317 317 317 319 320 319 322 322 323 321
300 300 300 300 300 300 300 311 315 313 315 314 314 317 316 316 318 320 319 319 319 317 319 321 320 318 318 317 317 317 316 316 316 318 318 318 319 319 319 319 322 323 323 324 322
300 300 299 299 300 304 313 312 311 313 315 317 317 316 315 317 318 319 320 318 317 318 319 320 322 320 319 318 318 317 317 316 316 317 320 319 319 320 321 322 322 323 323 322 323
300 300 300 300 303 310 310 305 312 315 318 317 317 320 318 317 320 320 321 318 317 318 321 320 321 322 321 319 318 318 318 317 317 317 319 319 317 320 320 321 322 322 322 324 325
301 300 300 300 300 302 302 307 313 316 321 317 323 322 322 318 322 322 322 319 318 319 321 321 321 321 320 319 319 318 318 318 317 316 320 319 317 318 320 321 321 320 323 325 326
301 301 301 302 302 303 306 309 313 319 321 319 324 325 324 320 322 322 322 320 319 318 320 321 321 320 319 320 319 318 318 317 316 315 317 318 319 318 319 322 322 322 325 325 327
303 303 302 303 304 306 307 310 314 318 315 323 326 324 323 324 324 322 322 322 320 322 324 323 322 320 321 321 318 318 314 315 320 317 318 318 319 318 319 323 323 325 325 325 329
304 304 304 306 309 309 307 314 317 314 316 319 323 322 323 324 323 323 323 324 321 323 326 325 323 321 321 320 318 315 315 317 321 321 320 321 320 319 320 324 325 325 325 327 327
303 304 310 312 312 312 313 316 315 314 315 315 316 323 318 322 323 324 323 323 322 320 324 323 325 323 321 321 320 317 317 317 321 323 324 321 321 323 322 324 323 323 326 327 327
302 306 315 316 313 313 315 314 312 313 313 316 320 321 321 317 325 324 324 323 323 321 317 321 323 323 322 321 321 319 319 319 320 326 324 322 326 330 328 327 323 326 325 327 328
302 308 315 319 318 316 317 316 316 314 317 319 322 323 322 324 323 323 324 324 322 323 317 320 324 325 325 321 319 319 320 319 319 319 323 327 331 327 328 328 327 324 324 324 325
304 307 316 314 316 316 315 315 316 317 317 318 319 321 318 316 322 321 321 323 321 320 324 318 322 324 324 323 323 325 319 321 321 325 324 327 327 327 326 326 326 325 324 324 326
304 306 312 313 315 316 315 314 313 317 317 319 318 317 318 320 321 321 320 319 320 320 325 319 323 326 326 324 324 324 321 322 322 326 328 330 328 327 326 324 324 325 325 324 324
305 311 311 311 312 314 313 313 314 313 314 318 319 317 317 319 320 321 321 320 320 320 322 323 325 326 326 328 326 327 327 326 323 324 327 328 329 328 325 322 320 321 323 321 323
308 311 309 309 309 309 311 313 314 315 315 316 317 316 311 314 319 321 321 319 319 318 320 324 327 326 325 323 324 325 325 326 328 327 326 326 327 328 324 320 319 319 319 321 319
307 306 307 307 308 307 311 313 314 314 314 317 315 313 312 315 319 322 319 318 321 319 322 322 323 323 325 326 323 322 323 324 326 327 326 323 327 324 323 321 320 320 320 320 321
303 304 305 306 308 308 311 311 312 313 313 315 313 313 316 318 317 318 319 320 317 318 320 323 323 323 326 325 324 324 320 321 324 326 326 326 321 323 322 321 319 319 318 318 317
Wind_Speed
16 17 17 17 17 18 17 18 19 17 17 19 21 21 22 22 27 27 35 30 19 15 19 15 13 10 11 12 20 20 3 4 6 7 11 26 11 14 12 6 8 6 6 10 20
18 17 18 18 19 19 19 19 20 20 20 20 20 21 22 24 29 34 32 28 22 20 18 16 20 12 12 11 11 10 9 10 8 8 11 20 12 15 10 18 4 3 2 12 11
19 19 20 19 19 19 20 21 21 21 23 23 22 22 22 21 28 16 4 8 21 24 22 17 13 17 23 24 17 8 16 10 16 31 29 19 8 11 10 6 12 9 4 10 5
22 20 19 20 22 22 21 21 22 23 24 23 24 25 23 15 7 5 5 3 7 10 22 21 23 26 8 11 29 13 22 24 25 29 25 9 15 3 8 12 17 17 15 16 17
21 20 21 22 24 24 25 25 25 25 24 24 22 22 22 6 38 20 15 21 19 12 22 26 25 24 13 16 22 19 15 27 31 32 33 22 10 10 11 14 17 17 18 20 25
22 22 22 24 25 26 26 26 26 27 26 25 23 18 10 19 25 10 7 20 24 17 21 27 18 28 16 22 16 12 25 25 29 30 29 12 8 15 20 20 21 21 23 25 30
23 24 25 25 27 28 29 28 28 26 25 27 25 16 17 47 15 9 13 21 25 22 23 24 32 24 28 10 32 28 18 13 21 17 10 14 14 14 19 20 25 27 31 31 34
26 27 29 29 29 31 31 32 29 26 29 27 18 9 17 31 25 27 22 22 23 18 20 18 25 33 33 23 22 12 11 14 9 9 11 9 23 15 22 30 30 35 33 31 33
28 29 31 32 31 32 32 34 30 26 23 10 6 9 16 11 19 10 23 22 17 20 24 20 28 32 25 11 6 10 12 9 10 8 6 14 20 14 27 30 18 32 33 33 34
29 29 30 31 32 31 31 34 29 17 8 3 7 7 18 13 9 9 5 26 23 20 21 27 23 11 11 8 16 7 7 9 12 16 21 20 21 12 26 18 18 12 18 25 34
29 29 29 29 31 29 30 34 3 3 10 14 17 19 30 18 23 6 13 21 19 26 15 22 8 18 16 14 7 11 15 13 16 21 17 19 20 12 16 20 17 21 24 27 27
29 29 29 30 31 26 26 14 16 14 20 27 39 45 49 34 26 23 17 17 22 18 15 14 24 13 11 12 16 18 20 19 16 15 11 7 6 8 12 10 19 18 20 11 23
30 29 30 31 31 20 8 18 21 27 17 37 48 43 43 36 36 37 26 25 10 17 18 21 7 16 18 19 20 21 21 15 13 17 4 7 4 7 5 10 23 16 11 4 7
31 30 31 33 22 9 20 18 19 15 5 11 8 8 17 29 18 36 29 25 10 20 18 18 16 20 23 23 21 19 21 19 20 15 5 6 5 5 6 11 7 14 12 10 17
33 32 31 29 34 34 21 14 8 11 6 10 4 8 7 21 3 28 31 25 18 19 17 17 17 24 21 24 21 18 16 17 20 8 3 9 3 5 7 11 13 9 16 20 23
34 33 34 35 29 25 2 12 12 3 8 4 6 8 9 23 23 4 23 25 22 17 18 15 16 18 19 20 24 19 15 16 9 3 5 7 4 5 5 8 10 8 23 23 27
36 35 34 30 27 6 8 8 3 6 9 3 6 5 1 4 2 3 8 17 13 14 14 11 15 10 15 16 11 16 8 4 3 7 8 9 6 8 10 7 8 14 23 21 30
39 38 33 26 9 1 11 3 8 10 15 6 6 5 10 6 6 6 7 5 20 13 6 10 6 19 12 13 8 9 7 4 6 4 3 7 15 12 19 5 21 29 30 30 28
40 35 26 3 5 8 5 6 4 7 15 18 25 5 3 16 4 2 8 12 13 15 10 2 6 6 17 17 14 7 10 7 2 6 4 4 6 6 16 12 15 22 30 30 24
41 28 14 4 10 17 7 13 13 23 26 25 18 7 8 6 8 9 9 6 12 16 15 2 7 15 15 18 20 8 6 11 3 1 6 6 2 7 12 12 8 14 19 28 26
29 15 4 3 8 6 4 7 17 29 13 9 10 9 14 8 4 6 5 5 11 13 13 2 4 8 6 17 12 10 15 6 6 7 5 1 2 5 9 6 8 10 19 22 17
15 4 6 5 2 5 5 10 22 26 27 5 9 13 3 13 5 6 6 7 5 7 3 18 5 3 5 15 14 13 6 7 5 3 2 5 3 3 9 11 12 13 26 23 20
17 11 13 13 2 5 11 17 20 11 6 6 5 2 2 4 6 6 7 7 7 1 2 11 5 1 7 7 6 6 3 1 5 4 6 4 3 6 7 8 17 15 20 22 23
8 4 10 16 12 8 14 17 21 27 10 4 9 5 7 8 8 5 8 5 11 2 10 8 4 5 5 2 3 5 2 5 0 4 4 6 5 5 9 9 10 19 22 24 21
4 4 14 6 14 20 18 17 20 13 12 3 1 6 2 6 10 5 7 4 4 4 6 4 6 9 8 0 4 3 4 3 4 2 3 6 9 5 6 7 11 22 16 9 14
7 6 11 22 17 16 10 11 19 22 18 5 4 7 10 8 16 3 4 6 5 10 10 4 2 4 3 4 8 2 5 16 8 3 2 6 2 7 13 14 8 9 12 31 25
16 20 11 10 10 12 4 14 22 20 13 2 2 6 15 2 16 6 16 2 10 10 3 4 5 5 5 10 10 3 9 9 6 7 9 4 10 12 7 10 6 21 29 29 26
Wind_Direction
336 334 330 326 323 322 320 320 320 317 312 311 310 307 304 302 293 288 275 264 267 263 236 237 234 238 240 238 226 236 215 231 237 249 267 291 350 337 336 86 77 72 64 117 137
332 329 327 325 322 320 318 317 317 315 315 312 309 309 310 312 303 287 283 275 256 247 239 239 233 211 214 236 235 199 212 227 245 256 272 285 314 344 7 343 90 117 141 121 139
333 330 327 325 324 319 317 316 314 314 313 313 310 308 306 317 315 289 256 273 235 224 233 240 245 238 216 236 224 243 235 248 228 240 253 270 305 321 351 337 338 356 317 280 196
332 330 329 328 326 325 320 315 311 310 310 307 309 309 306 314 285 252 157 54 359 229 227 230 226 246 227 220 236 252 240 241 256 269 274 273 297 278 282 282 299 310 306 292 287
330 327 327 327 325 324 322 319 316 311 307 305 303 306 313 268 257 245 251 292 297 257 219 214 226 234 239 222 237 241 247 242 244 248 261 273 270 270 264 273 282 285 285 280 275
327 326 324 324 322 321 320 318 315 312 311 307 302 301 288 257 287 268 284 253 261 248 232 214 217 217 252 231 219 247 238 250 249 244 254 269 257 258 263 271 266 265 262 259 265
325 322 320 320 319 317 316 314 310 309 306 301 295 290 262 255 265 241 237 222 244 252 235 230 211 225 232 263 235 243 258 249 238 240 252 272 279 252 252 257 257 252 245 245 250
319 317 316 315 314 312 312 309 307 307 299 293 293 250 253 281 291 257 214 230 223 237 233 223 218 235 250 250 254 249 249 249 254 213 225 212 260 259 252 248 244 246 241 237 240
317 313 310 309 310 310 310 304 306 302 287 294 253 237 263 302 273 283 225 221 219 227 224 232 229 231 247 245 264 242 243 254 254 242 227 210 250 244 250 255 252 237 236 234 235
321 319 313 311 312 317 312 308 315 271 268 272 225 241 258 253 281 272 252 210 230 219 227 232 238 226 235 209 221 234 230 243 249 234 233 238 237 233 239 248 264 236 247 222 224
324 324 320 317 315 323 315 318 338 322 196 216 235 223 265 278 301 236 220 208 225 236 206 228 218 223 217 227 235 258 245 235 231 239 235 231 231 199 222 243 261 255 248 227 222
328 326 322 320 315 318 306 287 288 298 294 267 263 251 259 259 277 270 208 183 219 225 191 221 227 221 234 229 233 244 250 257 278 268 209 179 205 201 210 221 233 243 254 247 219
329 327 324 320 322 319 300 289 330 313 276 280 259 251 247 234 240 254 202 197 210 225 198 218 227 216 236 227 225 232 243 254 254 280 230 143 227 211 252 249 242 241 217 225 313
328 326 324 321 325 292 283 312 303 344 289 285 233 247 225 215 223 229 239 190 221 222 223 219 228 224 220 236 228 230 229 247 259 269 229 146 239 245 245 250 233 231 183 111 63
328 324 322 318 307 301 320 302 336 333 288 279 99 159 173 180 46 199 219 190 209 233 205 226 204 232 220 225 238 242 243 235 246 265 288 279 105 251 232 240 228 216 159 108 91
330 324 320 313 301 319 345 343 333 254 249 262 37 348 354 192 220 156 212 204 212 232 258 238 237 235 236 234 218 243 241 245 223 220 281 239 152 271 246 259 171 168 134 115 108
328 323 315 302 291 324 259 283 242 230 295 17 10 321 319 251 156 102 209 213 205 207 245 272 250 248 261 279 230 230 217 224 191 207 229 198 256 227 257 268 175 133 124 113 108
329 326 318 304 291 262 218 236 234 255 240 357 97 63 301 247 191 157 140 221 249 137 259 206 215 213 234 229 239 219 173 169 188 194 222 243 223 232 249 89 123 125 117 108 93
331 332 324 348 270 166 222 248 257 243 267 295 317 327 167 271 273 166 175 206 256 201 211 181 269 285 225 240 237 217 234 211 121 96 4 242 291 268 233 127 119 118 112 110 107
336 337 342 105 177 167 208 241 275 296 297 311 318 207 225 264 230 168 185 232 240 259 225 140 273 254 236 211 245 215 181 222 124 59 180 263 355 29 13 21 132 113 115 116 116
345 322 285 186 154 194 237 254 273 276 302 321 307 288 317 229 183 172 146 242 213 296 204 134 134 296 317 215 203 186 213 193 166 176 199 206 127 317 341 3 48 71 71 74 68
352 302 163 298 249 233 254 278 314 313 330 309 292 264 213 279 180 198 202 153 73 323 258 217 166 249 277 313 322 304 185 161 123 223 155 150 221 332 27 15 62 54 76 72 79
321 276 347 6 276 308 310 311 312 288 339 313 276 243 296 245 257 185 200 205 144 309 247 177 178 177 319 355 321 276 201 314 132 114 181 103 259 113 40 29 41 45 63 76 76
319 308 333 319 322 316 312 312 325 309 293 261 287 348 347 297 229 220 201 165 163 205 302 325 146 174 210 172 263 202 69 32 116 123 151 160 183 170 109 89 79 82 66 50 55
283 310 4 316 331 317 318 320 332 348 329 39 29 22 161 292 272 237 176 113 109 264 311 340 151 144 178 149 301 75 86 14 318 20 133 164 165 159 139 114 115 103 99 129 74
315 331 328 301 305 307 9 344 330 329 312 335 338 308 312 254 279 206 47 165 161 201 216 243 110 111 93 190 231 219 218 171 229 138 83 329 207 178 170 135 213 173 147 87 84
324 326 315 289 310 322 353 315 333 335 307 352 295 355 331 256 323 244 222 295 132 153 139 125 164 189 152 155 199 278 215 191 183 163 103 257 278 192 163 162 150 91 86 88 87